sat.trackr.live / text

‹ back to catalog

STARLINK-1595

NORAD 46159 · 2020-057AU

PAYLOAD ACTIVE UNKNOWN

§ Identity

Operator
Country
US
Launch date
2020-08-18
Launch site
AFETR
Launch vehicle
Mass (kg)
RCS (m²)

Purposes: comms

External: N2YO · Heavens-Above · Gunter

§ Orbital elements

Epoch: 2026-09-04T13:45:13.347360Z

Period
87.50 min
Inclination
53.0193°
Eccentricity
0.0010998
Mean motion
16.45729355 rev/d
Perigee alt
143.4 km
Apogee alt
157.8 km
Semi-major
6,528.7 km
B*
2.9030e-4
RAAN
126.2231°
Arg perigee
237.7536°
Mean anomaly
122.2448°
Rev number
33,578

§ Raw data

STARLINK-15951 46159U 20057AU  26247.57307115  .13201629  12423-4  29030-3 0  99962 46159  53.0193 126.2231 0010998 237.7536 122.2448 16.45729355335781

JSON: /api/v1/satellites/46159 · /tle

For live sub-satellite position, see the globe view (requires WebGL).

§ Visibility from observer

Set your observer location to see the next 7 days of passes ≥ 10°. The values pass through the URL so the page stays shareable.

No JS? Fill the form by hand. The geolocation button needs JavaScript.